When you browse on this site, cookies collect data to enhance your experience and personalize the content and advertising you see.
Visit our Privacy Policy to learn more. By continuing to use the site, you agree to this use of cookies and data.
  • In Germany
  • List of Countries
  • For 7 days
  • Water Temperature
  • Weather Map
  • Weather Widgets
  • user-avatar
    Login

    Hourly Weather Zofinin

    Today, 31 May, Sunday

    Time Temperature Precipitation Wind Pressure Humidity
    00:00 +10°C° 1.2 mm 9 mps 746 mmHg 90%
    01:00 +11°C° 1.2 mm 8 mps 746 mmHg 87%
    02:00 +11°C° 0 mm 8 mps 746 mmHg 86%
    03:00 +11°C° 0 mm 8 mps 746 mmHg 84%
    04:00 +11°C° 0 mm 8 mps 746 mmHg 83%
    05:00 +11°C° 0 mm 8 mps 746 mmHg 80%
    06:00 +12°C° 0 mm 8 mps 746 mmHg 78%
    07:00 +13°C° 0 mm 9 mps 747 mmHg 75%
    08:00 +13°C° 0 mm 8 mps 747 mmHg 75%
    09:00 +13°C° 0 mm 8 mps 748 mmHg 74%
    10:00 +14°C° 0 mm 7 mps 748 mmHg 73%
    11:00 +15°C° 0 mm 7 mps 748 mmHg 72%
    12:00 +15°C° 0 mm 7 mps 749 mmHg 72%
    13:00 +16°C° 0 mm 8 mps 749 mmHg 71%
    14:00 +16°C° 0 mm 7 mps 750 mmHg 72%
    15:00 +16°C° 0 mm 7 mps 750 mmHg 72%
    16:00 +16°C° 0 mm 7 mps 750 mmHg 72%
    17:00 +16°C° 0 mm 6 mps 750 mmHg 74%
    18:00 +15°C° 0 mm 5 mps 751 mmHg 76%
    19:00 +15°C° 0 mm 4 mps 751 mmHg 78%
    20:00 +14°C° 0 mm 4 mps 751 mmHg 78%
    21:00 +13°C° 0 mm 4 mps 752 mmHg 78%
    22:00 +12°C° 0 mm 5 mps 752 mmHg 78%
    23:00 +11°C° 0 mm 4 mps 753 mmHg 76%

    Tomorrow, 1 June, Monday

    Time Temperature Precipitation Wind Pressure Humidity
    00:00 +10°C° 0 mm 4 mps 753 mmHg 74%
    01:00 +10°C° 0 mm 4 mps 753 mmHg 72%
    02:00 +8°C° 0 mm 4 mps 753 mmHg 73%
    03:00 +7°C° 0 mm 4 mps 753 mmHg 74%
    04:00 +7°C° 0 mm 4 mps 753 mmHg 75%
    05:00 +8°C° 0 mm 5 mps 754 mmHg 72%
    06:00 +9°C° 0 mm 5 mps 754 mmHg 69%
    07:00 +12°C° 0 mm 5 mps 754 mmHg 65%
    08:00 +13°C° 0 mm 6 mps 754 mmHg 62%
    09:00 +13°C° 0 mm 6 mps 754 mmHg 60%
    10:00 +14°C° 0 mm 6 mps 755 mmHg 57%
    11:00 +15°C° 0 mm 6 mps 755 mmHg 55%
    12:00 +15°C° 0 mm 6 mps 754 mmHg 54%
    13:00 +16°C° 0 mm 7 mps 754 mmHg 53%
    14:00 +15°C° 0 mm 6 mps 754 mmHg 54%
    15:00 +15°C° 0 mm 6 mps 754 mmHg 56%
    16:00 +15°C° 0 mm 6 mps 754 mmHg 57%
    17:00 +14°C° 0 mm 5 mps 754 mmHg 63%
    18:00 +13°C° 0 mm 4 mps 754 mmHg 70%
    19:00 +12°C° 0 mm 3 mps 753 mmHg 76%
    20:00 +12°C° 0 mm 3 mps 753 mmHg 80%
    21:00 +11°C° 0 mm 3 mps 753 mmHg 83%
    22:00 +10°C° 0 mm 3 mps 753 mmHg 87%
    23:00 +10°C° 0 mm 3 mps 753 mmHg 88%

    Day after tomorrow, 2 June, Tuesday

    Time Temperature Precipitation Wind Pressure Humidity
    00:00 +9°C° 0 mm 3 mps 753 mmHg 89%
    01:00 +9°C° 0 mm 3 mps 752 mmHg 90%
    02:00 +9°C° 0 mm 3 mps 752 mmHg 91%
    03:00 +8°C° 0 mm 3 mps 752 mmHg 92%
    04:00 +8°C° 0 mm 3 mps 752 mmHg 93%
    05:00 +9°C° 0 mm 3 mps 751 mmHg 86%
    06:00 +11°C° 0 mm 3 mps 751 mmHg 79%
    07:00 +12°C° 0 mm 3 mps 751 mmHg 72%
    08:00 +13°C° 0.2 mm 4 mps 751 mmHg 70%
    09:00 +13°C° 0.2 mm 4 mps 751 mmHg 68%
    10:00 +14°C° 0.2 mm 4 mps 750 mmHg 67%
    11:00 +15°C° 0.2 mm 4 mps 750 mmHg 63%
    12:00 +17°C° 0.2 mm 4 mps 749 mmHg 60%
    13:00 +17°C° 0.2 mm 4 mps 749 mmHg 56%
    14:00 +17°C° 0.1 mm 4 mps 748 mmHg 56%
    15:00 +17°C° 0.1 mm 4 mps 748 mmHg 56%
    16:00 +18°C° 0.1 mm 4 mps 747 mmHg 56%
    17:00 +16°C° 0.1 mm 3 mps 747 mmHg 62%
    18:00 +14°C° 0.1 mm 3 mps 747 mmHg 68%
    19:00 +14°C° 0.1 mm 2 mps 747 mmHg 75%
    20:00 +12°C° 0 mm 2 mps 747 mmHg 78%
    21:00 +10°C° 0 mm 3 mps 747 mmHg 81%
    22:00 +9°C° 0 mm 3 mps 746 mmHg 84%
    23:00 +9°C° 0 mm 3 mps 746 mmHg 86%

    3 June, Wednesday

    Time Temperature Precipitation Wind Pressure Humidity
    00:00 +8°C° 0 mm 3 mps 746 mmHg 88%
    01:00 +8°C° 0 mm 3 mps 745 mmHg 91%
    02:00 +8°C° 0 mm 3 mps 745 mmHg 90%
    03:00 +8°C° 0 mm 3 mps 745 mmHg 90%
    04:00 +8°C° 0 mm 3 mps 745 mmHg 89%
    05:00 +8°C° 0 mm 4 mps 745 mmHg 83%
    06:00 +11°C° 0 mm 4 mps 745 mmHg 77%
    07:00 +12°C° 0 mm 5 mps 744 mmHg 72%
    08:00 +13°C° 0 mm 5 mps 744 mmHg 67%
    09:00 +15°C° 0 mm 6 mps 744 mmHg 63%
    10:00 +16°C° 0 mm 6 mps 744 mmHg 58%
    11:00 +15°C° 0.1 mm 5 mps 744 mmHg 63%
    12:00 +15°C° 0.1 mm 5 mps 744 mmHg 68%
    13:00 +14°C° 0.1 mm 4 mps 744 mmHg 72%
    14:00 +14°C° 0.1 mm 4 mps 744 mmHg 76%
    15:00 +13°C° 0.1 mm 3 mps 744 mmHg 80%
    16:00 +13°C° 0.1 mm 2 mps 744 mmHg 84%
    17:00 +13°C° 0 mm 2 mps 744 mmHg 85%
    18:00 +13°C° 0 mm 2 mps 744 mmHg 86%
    19:00 +13°C° 0 mm 1 mps 744 mmHg 87%
    20:00 +12°C° 0 mm 1 mps 744 mmHg 89%
    21:00 +12°C° 0 mm 2 mps 744 mmHg 91%
    22:00 +10°C° 0 mm 2 mps 745 mmHg 93%
    23:00 +10°C° 0 mm 2 mps 745 mmHg 94%

    4 June, Thursday

    Time Temperature Precipitation Wind Pressure Humidity
    00:00 +9°C° 0 mm 2 mps 745 mmHg 95%
    01:00 +9°C° 0 mm 2 mps 744 mmHg 96%
    02:00 +9°C° 0 mm 2 mps 745 mmHg 96%
    03:00 +9°C° 0 mm 2 mps 745 mmHg 96%
    04:00 +9°C° 0 mm 2 mps 745 mmHg 97%
    05:00 +10°C° 0 mm 2 mps 745 mmHg 93%
    06:00 +11°C° 0 mm 3 mps 745 mmHg 89%
    07:00 +11°C° 0 mm 3 mps 745 mmHg 84%
    08:00 +12°C° 0 mm 3 mps 745 mmHg 82%
    09:00 +13°C° 0 mm 3 mps 745 mmHg 79%
    10:00 +13°C° 0 mm 3 mps 745 mmHg 77%
    11:00 +14°C° 0 mm 3 mps 745 mmHg 73%
    12:00 +16°C° 0 mm 3 mps 745 mmHg 70%
    13:00 +17°C° 0 mm 3 mps 745 mmHg 66%
    14:00 +17°C° 0.1 mm 3 mps 745 mmHg 67%
    15:00 +18°C° 0.1 mm 3 mps 745 mmHg 69%
    16:00 +18°C° 0.1 mm 3 mps 745 mmHg 70%
    17:00 +17°C° 0 mm 3 mps 744 mmHg 74%
    18:00 +16°C° 0 mm 2 mps 744 mmHg 78%
    19:00 +15°C° 0 mm 2 mps 744 mmHg 83%
    20:00 +14°C° 0 mm 1 mps 744 mmHg 85%
    21:00 +13°C° 0 mm 1 mps 744 mmHg 87%
    22:00 +12°C° 0 mm 1 mps 744 mmHg 89%
    23:00 +12°C° 0 mm 1 mps 744 mmHg 89%

    5 June, Friday

    Time Temperature Precipitation Wind Pressure Humidity
    00:00 +12°C° 0 mm 1 mps 744 mmHg 90%
    01:00 +10°C° 0 mm 0 mps 744 mmHg 90%
    02:00 +10°C° 0 mm 0 mps 743 mmHg 90%
    03:00 +11°C° 0 mm 1 mps 743 mmHg 90%
    04:00 +11°C° 0 mm 1 mps 743 mmHg 91%
    05:00 +13°C° 0 mm 1 mps 743 mmHg 86%
    06:00 +14°C° 0 mm 1 mps 743 mmHg 81%
    07:00 +16°C° 0 mm 1 mps 743 mmHg 77%
    08:00 +18°C° 0 mm 1 mps 743 mmHg 70%
    09:00 +20°C° 0 mm 1 mps 743 mmHg 63%
    10:00 +22°C° 0 mm 1 mps 743 mmHg 55%
    11:00 +22°C° 0 mm 1 mps 743 mmHg 54%
    12:00 +22°C° 0 mm 1 mps 743 mmHg 53%
    13:00 +23°C° 0 mm 1 mps 743 mmHg 51%
    14:00 +21°C° 0.1 mm 2 mps 743 mmHg 57%
    15:00 +20°C° 0.1 mm 2 mps 743 mmHg 62%
    16:00 +19°C° 0.1 mm 2 mps 742 mmHg 68%
    17:00 +18°C° 0 mm 2 mps 742 mmHg 70%
    18:00 +18°C° 0 mm 1 mps 742 mmHg 73%
    19:00 +18°C° 0 mm 1 mps 742 mmHg 75%
    20:00 +16°C° 0 mm 1 mps 743 mmHg 77%
    21:00 +15°C° 0 mm 1 mps 743 mmHg 80%
    22:00 +14°C° 0 mm 1 mps 743 mmHg 82%
    23:00 +14°C° 0 mm 2 mps 743 mmHg 85%
    Show more